Tracking 25195 objects as of 20-Jan-2022
HD Live streaming from Space Station
objects crossing your sky now

STARLINK-3194

Track STARLINK-3194 now!
10-day predictions
STARLINK-3194 is classified as:


NORAD ID: 49758
Int'l Code: 2021-115AL
Perigee: 449.8 km
Apogee: 454.0 km
Inclination: 53.2 °
Period: 93.5 minutes
Semi major axis: 6822 km
RCS: Unknown
Launch date: December 2, 2021
Source: United States (US)
Launch site: AIR FORCE EASTERN TEST RANGE (AFETR)
aabbcc
Your satellite tracking list
Your tracking list is empty




NASA's NSSDC Master Catalog

Two Line Element Set (TLE):
1 49758U 21115AL  22020.58334491 -.00055451  00000-0 -13482-2 0  9998
2 49758  53.2162  88.1423 0003131  12.3134 179.6408 15.40458844  3610
Source of the keplerian elements: AFSPC